Tracking 28792 objects as of 25-Apr-2024
HD Live streaming from Space Station
objects crossing your sky now

COSMOS 2523

Track COSMOS 2523 now!
10-day predictions


NORAD ID: 42986
Int'l Code: 2017-037E
Perigee: 553.6 km
Apogee: 655.0 km
Inclination: 97.6 °
Period: 96.6 minutes
Semi major axis: 6975 km
RCS: Unknown
Launch date: June 23, 2017
Source: Commonwealth of Independent States (former USSR) (CIS)
Launch site: PLESETSK MISSILE AND SPACE COMPLEX (PKMTR)
Your satellite tracking list
Your tracking list is empty




NASA's NSSDC Master Catalog

Two Line Element Set (TLE):
1 42986U 17037E   24116.17554551  .00004828  00000-0  47893-3 0  9990
2 42986  97.5611 151.7308 0072647 329.7818  29.9219 14.90248539352118
Source of the keplerian elements: AFSPC